Powrót do katalogu

SL-19 DEB

AktywnyUNKNOWN
NORAD 23483·DEBRIS·🇷🇺 Russia

Wystrzelony Dec 26, 1994 z Baikonur Cosmodrome

Loading…

Następne Przeloty (najbliższe 24 godziny)

TLE

ŚwieżeSource: Space-Track

Epoka: Sep 14, 2026, 14:25 UTC

1 23483U 94085F   26257.60134329 -.00000057  00000-0 -44800-3 0  9999
2 23483  64.7260 274.7411 0187777 155.1441 294.6168 11.22867830300536

Śledź SL-19 DEB w czasie rzeczywistym z AllMySat

Download on the App Store